Вернуться в каталог

SL-12 DEB

LostHEO
NORAD 38681·DEBRIS·🇷🇺 Russia

Запущен Apr 8, 1996 с Baikonur Cosmodrome

Loading…

Ближайшие Пролёты (ближайшие 24 часа)

TLE

УстаревшееSource: Space-Track

Эпоха: Oct 16, 2012, 00:05 UTC

1 38681U 96021F   12290.00385707 -.00000102  00000-0  10000-3 0  9996
2 38681 006.2499 187.7533 3726526 003.9754 358.4311 01.64357096  6700

Отслеживайте SL-12 DEB в реальном времени с AllMySat

Download on the App Store